Weather in Ichalki

Russia / Nizhny Novgorod Oblast'     55°26′36″N   44°30′10″E
temp.,
°C
wind,
m/s
gust,
m/s
humid.,
%
clouds,
%
prec.,
mm/h
press.,
hPa
HPBL,
m
16 april, fri
fri1600:00+10nne5108174 0.0 1019170
03:00+9ne61295100 0.0 1020381
06:00+8ene71189100 0.0 1021485
09:00+9ene71187100 0.0 1022557
12:00+13e797565 0.0 1022792
15:00+15e786169 0.0 1022999
18:00+14ene7116896 0.0 1022572
21:00+11ene7147985 0.0 1023465
17 april, sat
sat1700:00+8ene6128398 0.0 1024380
03:00+6ene5128660 0.0 1025308
06:00+5ene6137841 0.0 1025346
09:00+9e710656 0.0 1025517
12:00+13e795550 0.0 1024908
15:00+14e78505 0.0 10241168
18:00+12ene7115133 0.0 1023577
21:00+8ene614545 0.0 1024356
18 april, sun
sun1800:00+6ene614655 0.0 1024375
03:00+5ene613725 0.0 1024330
06:00+4ene512755 0.0 1024382
09:00+8e7105790 0.0 1024702
12:00+12e6844100 0.0 10241322
15:00+13e6844100 0.0 10231641
18:00+11ene51053100 0.0 1024391
21:00+8ene81470100 0.0 1025540
19 april, mon
mon1900:00+5ene61177100 0.0 1026473
03:00+4ene51173100 0.0 1027448
06:00+4ene61162100 0.0 1027512
09:00+5e7105973 0.0 1028770
12:00+8e89455 0.0 10281439
15:00+9e8103723 0.0 10281607
18:00+7e7114741 0.0 10281169
21:00+5e613557 0.0 1029586
20 april, tue
tue2000:00+3e6125987 0.0 1029445
03:00+3e61260100 0.0 1029507
06:00+3e71464100 0.0 1028639
09:00+4ese71367100 0.0 1028800
12:00+7ese8135981 0.0 10261003
15:00+10ese91252100 0.0 10241377
18:00+8ese91555100 0.0 10221069
21:00+7ese81656100 0.0 1021969